Date,TemperatureHighF,TemperatureAvgF,TemperatureLowF,DewpointHighF,DewpointAvgF,DewpointLowF,HumidityHigh,HumidityAvg,HumidityLow,PressureMaxIn,PressureMinIn,WindSpeedMaxMPH,WindSpeedAvgMPH,GustSpeedMaxMPH,PrecipitationSumIn
2013-2-1,30.2,26.1,17.9,15.5,3.6,-1.0,59,38,29,30.41,29.95,14,2,20,0.00
2013-2-2,34.4,25.2,16.1,24.3,13.0,5.3,82,61,36,30.41,30.03,6,0,7,0.00
2013-2-3,40.3,31.4,23.9,27.3,21.8,14.2,86,69,46,30.02,29.84,6,0,10,0.02
2013-2-4,37.0,30.9,21.8,22.3,16.2,11.4,75,55,43,30.14,29.93,11,0,11,0.00
2013-2-5,55.5,41.3,30.1,33.3,26.9,18.7,73,58,39,29.93,29.84,4,0,10,0.00
2013-2-6,53.6,39.7,27.9,30.9,25.8,22.2,83,60,33,30.35,29.93,5,0,9,0.00
2013-2-7,40.4,35.3,27.9,28.4,24.0,20.8,83,64,49,30.44,30.17,2,0,4,0.00
2013-2-8,49.2,39.8,33.0,39.0,31.1,21.7,92,72,49,30.17,29.78,11,1,16,0.10
2013-2-9,47.7,36.9,26.0,22.8,15.5,10.3,64,43,23,30.39,29.98,8,1,12,0.00
2013-2-10,45.0,33.5,19.9,29.3,17.3,12.9,77,53,32,30.51,30.26,2,0,5,0.02
2013-2-11,55.2,45.9,36.0,49.6,40.0,22.5,93,81,28,30.26,29.79,6,0,17,0.06
2013-2-12,57.9,50.3,42.5,32.3,25.3,21.6,64,39,27,30.00,29.83,7,1,12,0.01
2013-2-13,42.6,39.4,34.5,34.2,30.1,26.0,87,70,53,29.93,29.65,3,0,4,0.01
2013-2-14,50.6,37.6,27.3,32.2,26.4,23.2,92,67,34,30.04,29.81,4,0,6,0.00
2013-2-15,60.4,43.4,27.4,38.6,29.6,22.1,87,62,32,30.07,29.89,4,0,10,0.03
2013-2-16,39.3,35.7,29.8,35.9,27.1,13.0,90,72,46,30.02,29.85,5,0,10,0.07
2013-2-17,29.5,26.0,21.6,15.4,8.0,1.0,60,47,32,30.25,29.89,7,1,14,0.00
2013-2-18,46.6,32.8,16.0,20.9,12.1,4.4,76,44,23,30.41,30.21,7,0,7,0.00
2013-2-19,44.8,37.3,29.7,39.9,28.6,18.7,88,72,43,30.20,29.78,5,0,9,0.07
2013-2-20,45.0,37.2,28.6,21.4,14.2,10.9,58,39,28,30.16,29.90,6,1,18,0.00
2013-2-21,44.1,33.2,23.7,17.3,14.9,12.0,70,48,31,30.32,30.15,10,1,12,0.00
2013-2-22,37.3,34.0,31.4,26.0,21.1,16.0,68,59,51,30.37,30.25,2,0,5,0.01
2013-2-23,49.0,41.3,33.5,40.9,36.1,29.4,91,82,73,30.10,29.83,2,0,4,0.01
2013-2-24,58.1,44.5,30.6,42.4,30.5,19.8,93,63,26,30.12,29.82,5,0,13,0.00
2013-2-25,43.5,34.1,24.7,20.9,18.5,15.9,74,54,37,30.25,30.12,3,0,6,0.00
2013-2-26,42.5,34.6,26.4,40.8,29.1,17.5,98,81,65,30.23,29.59,4,0,7,1.04
2013-2-27,57.1,46.3,39.0,44.0,36.5,30.6,95,72,41,29.72,29.57,7,1,11,0.01
2013-2-28,46.6,41.2,36.3,34.1,27.2,23.2,81,59,41,29.78,29.64,6,1,14,0.00